| time (UTC) | temp F | wind direction | speed MPH | gust MPH | rain 1hr in | rain 24hr in | rain mn in | humidity % | barometer mb |
| 20260507101503 | 33 | 259 | 1.0 | 3.0 | 0.00 | 0.31 | 0.00 | 64 | 1010.9 |
| 20260507101003 | 33 | 259 | 2.0 | 3.0 | 0.00 | 0.32 | 0.00 | 64 | 1010.8 |
| 20260507100503 | 33 | 259 | 2.0 | 3.0 | 0.00 | 0.34 | 0.00 | 64 | 1010.9 |
| 20260507100003 | 33 | 259 | 2.0 | 3.0 | 0.00 | 0.35 | 0.00 | 64 | 1010.9 |
| 20260507095503 | 33 | 259 | 2.0 | 3.0 | 0.00 | 0.36 | 0.00 | 63 | 1010.8 |
| 20260507095003 | 33 | 259 | 2.0 | 4.0 | 0.00 | 0.38 | 0.00 | 63 | 1010.7 |
| 20260507094714 | 33 | 259 | 2.0 | 4.0 | 0.00 | 0.39 | 0.00 | 63 | 1010.8 |
| 20260507094003 | 34 | 258 | 3.0 | 4.0 | 0.00 | 0.40 | 0.00 | 63 | 1010.8 |
| 20260507093712 | 33 | 258 | 3.0 | 4.0 | 0.00 | 0.41 | 0.00 | 63 | 1010.7 |
| 20260507093003 | 33 | 258 | 2.0 | 4.0 | 0.00 | 0.42 | 0.00 | 63 | 1010.7 |
| 20260507092503 | 33 | 259 | 1.0 | 3.0 | 0.00 | 0.43 | 0.00 | 63 | 1010.7 |
| 20260507092003 | 33 | 258 | 2.0 | 4.0 | 0.00 | 0.45 | 0.00 | 63 | 1010.8 |
| 20260507091503 | 34 | 258 | 2.0 | 4.0 | 0.00 | 0.47 | 0.00 | 63 | 1010.9 |
| 20260507091003 | 34 | 258 | 2.0 | 4.0 | 0.00 | 0.47 | 0.00 | 63 | 1010.9 |
| 20260507090714 | 34 | 260 | 3.0 | 6.0 | 0.00 | 0.48 | 0.00 | 63 | 1010.9 |
| 20260507090213 | 34 | 265 | 3.0 | 6.0 | 0.00 | 0.48 | 0.00 | 63 | 1010.8 |
| 20260507085503 | 34 | 271 | 3.0 | 4.0 | 0.00 | 0.49 | 0.00 | 63 | 1010.9 |
| 20260507085003 | 34 | 273 | 3.0 | 4.0 | 0.00 | 0.50 | 0.00 | 62 | 1010.8 |
| 20260507084503 | 34 | 270 | 3.0 | 4.0 | 0.00 | 0.51 | 0.00 | 62 | 1010.8 |
| 20260507084003 | 34 | 265 | 3.0 | 4.0 | 0.00 | 0.52 | 0.00 | 62 | 1010.8 |
| 20260507083503 | 34 | 264 | 2.0 | 4.0 | 0.00 | 0.52 | 0.00 | 62 | 1010.7 |
| 20260507083003 | 34 | 267 | 0.0 | 2.0 | 0.00 | 0.53 | 0.00 | 62 | 1010.7 |
| 20260507082714 | 35 | 267 | 1.0 | 4.0 | 0.00 | 0.53 | 0.00 | 62 | 1010.8 |
| 20260507082003 | 35 | 266 | 3.0 | 4.0 | 0.00 | 0.54 | 0.00 | 62 | 1010.8 |
| 20260507081503 | 35 | 263 | 4.0 | 6.0 | 0.00 | 0.55 | 0.00 | 62 | 1011.0 |
| 20260507081003 | 35 | 262 | 4.0 | 6.0 | 0.00 | 0.55 | 0.00 | 62 | 1011.0 |
| 20260507080503 | 36 | 264 | 4.0 | 6.0 | 0.00 | 0.56 | 0.00 | 62 | 1011.0 |
| 20260507080003 | 36 | 265 | 4.0 | 6.0 | 0.00 | 0.57 | 0.00 | 62 | 1011.0 |
| 20260507075503 | 36 | 266 | 3.0 | 6.0 | 0.00 | 0.58 | 0.00 | 61 | 1011.0 |
| 20260507075003 | 36 | 265 | 3.0 | 6.0 | 0.00 | 0.59 | 0.00 | 61 | 1011.0 |
| 20260507074714 | 36 | 262 | 3.0 | 6.0 | 0.00 | 0.59 | 0.00 | 61 | 1011.1 |
| 20260507074003 | 36 | 259 | 3.0 | 6.0 | 0.00 | 0.62 | 0.00 | 61 | 1011.0 |
| 20260507073503 | 36 | 260 | 3.0 | 6.0 | 0.00 | 0.62 | 0.00 | 61 | 1010.9 |
| 20260507073003 | 37 | 264 | 2.0 | 6.0 | 0.00 | 0.64 | 0.00 | 61 | 1010.8 |
| 20260507072503 | 37 | 265 | 1.0 | 4.0 | 0.00 | 0.67 | 0.00 | 60 | 1010.8 |
| 20260507072003 | 37 | 266 | 1.0 | 3.0 | 0.00 | 0.68 | 0.00 | 60 | 1010.9 |
| 20260507071503 | 38 | 266 | 1.0 | 3.0 | 0.00 | 0.72 | 0.00 | 60 | 1011.0 |
| 20260507071003 | 38 | 267 | 1.0 | 3.0 | 0.00 | 0.74 | 0.00 | 60 | 1011.0 |
| 20260507070503 | 38 | 268 | 1.0 | 3.0 | 0.00 | 0.75 | 0.00 | 59 | 1011.0 |
| 20260507070006 | 38 | 269 | 1.0 | 3.0 | 0.00 | 0.76 | 0.00 | 59 | 1011.0 |
| 20260507065503 | 38 | 269 | 0.0 | 2.0 | 0.00 | 0.76 | 0.00 | 59 | 1010.9 |
| 20260507065214 | 39 | 269 | 0.0 | 2.0 | 0.00 | 0.76 | 0.00 | 59 | 1010.8 |
| 20260507064503 | 39 | 272 | 0.0 | 3.0 | 0.00 | 0.76 | 0.00 | 58 | 1010.8 |
| 20260507064003 | 39 | 272 | 0.0 | 3.0 | 0.00 | 0.77 | 0.00 | 58 | 1010.9 |
| 20260507063503 | 39 | 267 | 0.0 | 2.0 | 0.00 | 0.78 | 0.00 | 58 | 1010.9 |
| 20260507063003 | 40 | 266 | 0.0 | 3.0 | 0.00 | 0.78 | 0.00 | 58 | 1011.0 |
| 20260507062503 | 40 | 264 | 0.0 | 3.0 | 0.00 | 0.78 | 0.00 | 58 | 1011.0 |
| 20260507062003 | 40 | 262 | 0.0 | 2.0 | 0.00 | 0.78 | 0.00 | 57 | 1010.9 |
| 20260507061503 | 40 | 262 | 0.0 | 2.0 | 0.00 | 0.79 | 0.00 | 58 | 1011.2 |
| 20260507061003 | 40 | 262 | 1.0 | 4.0 | 0.00 | 0.79 | 0.00 | 57 | 1011.2 |
| 20260507060713 | 40 | 262 | 1.0 | 4.0 | 0.00 | 0.79 | 0.00 | 57 | 1011.2 |
| 20260507060003 | 40 | 257 | 1.0 | 6.0 | 0.00 | 0.80 | 0.00 | 57 | 1011.3 |
| 20260507055503 | 40 | 261 | 1.0 | 6.0 | 0.00 | 0.80 | 0.00 | 57 | 1011.4 |
| 20260507055003 | 40 | 278 | 2.0 | 4.0 | 0.00 | 0.80 | 0.00 | 56 | 1011.4 |
| 20260507054503 | 40 | 280 | 2.0 | 8.0 | 0.00 | 0.81 | 0.00 | 56 | 1011.5 |
| 20260507054003 | 40 | 270 | 2.0 | 8.0 | 0.00 | 0.81 | 0.00 | 56 | 1011.5 |
| 20260507053503 | 40 | 264 | 2.0 | 7.0 | 0.00 | 0.81 | 0.00 | 56 | 1011.4 |
| 20260507053004 | 40 | 265 | 2.0 | 7.0 | 0.00 | 0.82 | 0.00 | 56 | 1011.5 |
| 20260507052503 | 40 | 266 | 3.0 | 7.0 | 0.00 | 0.82 | 0.00 | 55 | 1011.5 |
| 20260507052003 | 40 | 268 | 2.0 | 8.0 | 0.00 | 0.84 | 0.00 | 55 | 1011.4 |
| 20260507051713 | 40 | 268 | 3.0 | 8.0 | 0.00 | 0.84 | 0.00 | 55 | 1011.6 |
| 20260507051003 | 40 | 264 | 2.0 | 9.0 | 0.00 | 0.85 | 0.00 | 55 | 1011.5 |
| 20260507050713 | 40 | 269 | 2.0 | 9.0 | 0.00 | 0.85 | 0.00 | 55 | 1011.5 |
| 20260507050003 | 40 | 273 | 2.0 | 7.0 | 0.00 | 0.86 | 0.00 | 55 | 1011.7 |
| 20260507045713 | 40 | 267 | 3.0 | 9.0 | 0.00 | 0.87 | 0.00 | 54 | 1011.6 |
| 20260507045214 | 40 | 265 | 2.0 | 9.0 | 0.00 | 0.88 | 0.00 | 55 | 1011.6 |
| 20260507044503 | 41 | 265 | 1.0 | 5.0 | 0.00 | 0.88 | 0.00 | 55 | 1011.7 |
| 20260507044003 | 41 | 266 | 1.0 | 5.0 | 0.00 | 0.88 | 0.00 | 55 | 1011.6 |
| 20260507043712 | 41 | 262 | 1.0 | 5.0 | 0.00 | 0.89 | 0.00 | 55 | 1011.5 |
| 20260507043003 | 41 | 278 | 1.0 | 4.0 | 0.00 | 0.89 | 0.00 | 55 | 1011.5 |
| 20260507042503 | 41 | 331 | 0.0 | 3.0 | 0.00 | 0.89 | 0.00 | 55 | 1011.5 |
| 20260507042003 | 41 | 276 | 0.0 | 3.0 | 0.00 | 0.89 | 0.00 | 55 | 1011.4 |
| 20260507041503 | 41 | 280 | 1.0 | 7.0 | 0.00 | 0.89 | 0.00 | 55 | 1011.4 |
| 20260507041003 | 41 | 299 | 2.0 | 7.0 | 0.00 | 0.89 | 0.00 | 55 | 1011.4 |
| 20260507040503 | 41 | 294 | 2.0 | 7.0 | 0.00 | 0.89 | 0.00 | 55 | 1011.4 |
| 20260507040003 | 41 | 285 | 2.0 | 7.0 | 0.00 | 0.89 | 0.00 | 55 | 1011.4 |
| 20260507035503 | 41 | 288 | 2.0 | 7.0 | 0.00 | 0.89 | 0.89 | 55 | 1011.5 |
| 20260507035213 | 41 | 277 | 2.0 | 7.0 | 0.00 | 0.89 | 0.89 | 55 | 1011.4 |
| 20260507034503 | 41 | 267 | 1.0 | 7.0 | 0.00 | 0.89 | 0.89 | 56 | 1011.3 |
| 20260507034213 | 41 | 273 | 1.0 | 7.0 | 0.00 | 0.89 | 0.89 | 56 | 1011.3 |
| 20260507033503 | 41 | 269 | 2.0 | 7.0 | 0.00 | 0.89 | 0.89 | 56 | 1011.3 |
| 20260507033003 | 41 | 278 | 1.0 | 7.0 | 0.00 | 0.89 | 0.89 | 56 | 1011.3 |
| 20260507032504 | 41 | 276 | 1.0 | 8.0 | 0.00 | 0.89 | 0.89 | 57 | 1011.2 |
| 20260507032003 | 41 | 263 | 2.0 | 8.0 | 0.00 | 0.89 | 0.89 | 57 | 1011.2 |
| 20260507031714 | 42 | 275 | 1.0 | 8.0 | 0.00 | 0.89 | 0.89 | 58 | 1011.2 |
| 20260507031003 | 42 | 282 | 2.0 | 8.0 | 0.00 | 0.89 | 0.89 | 58 | 1011.2 |
| 20260507030714 | 42 | 277 | 3.0 | 8.0 | 0.00 | 0.89 | 0.89 | 58 | 1011.3 |
| 20260507030003 | 42 | 271 | 3.0 | 9.0 | 0.00 | 0.89 | 0.89 | 58 | 1011.3 |
| 20260507025503 | 42 | 268 | 2.0 | 9.0 | 0.00 | 0.89 | 0.89 | 58 | 1011.1 |
| 20260507025003 | 42 | 264 | 1.0 | 8.0 | 0.00 | 0.89 | 0.89 | 59 | 1011.0 |
| 20260507024714 | 42 | 281 | 2.0 | 8.0 | 0.00 | 0.89 | 0.89 | 59 | 1011.1 |
| 20260507024003 | 42 | 304 | 3.0 | 11.0 | 0.00 | 0.89 | 0.89 | 59 | 1011.1 |
| 20260507023503 | 42 | 300 | 2.0 | 11.0 | 0.00 | 0.90 | 0.89 | 59 | 1011.2 |
| 20260507023003 | 43 | 319 | 1.0 | 5.0 | 0.00 | 0.91 | 0.89 | 58 | 1011.1 |
| 20260507022714 | 43 | 339 | 1.0 | 5.0 | 0.00 | 0.91 | 0.89 | 58 | 1011.0 |
| 20260507022003 | 43 | 300 | 2.0 | 8.0 | 0.00 | 0.92 | 0.89 | 58 | 1011.0 |
| 20260507021503 | 43 | 289 | 2.0 | 7.0 | 0.00 | 0.93 | 0.89 | 58 | 1011.0 |
| 20260507021213 | 43 | 287 | 2.0 | 8.0 | 0.00 | 0.93 | 0.89 | 58 | 1011.0 |
| 20260507020503 | 43 | 283 | 2.0 | 8.0 | 0.00 | 0.96 | 0.89 | 58 | 1011.0 |
| 20260507020003 | 43 | 278 | 3.0 | 10.0 | 0.00 | 0.98 | 0.89 | 58 | 1010.9 |
| 20260507015503 | 44 | 284 | 3.0 | 10.0 | 0.00 | 0.99 | 0.89 | 58 | 1011.1 |
| 20260507015003 | 44 | 283 | 3.0 | 9.0 | 0.00 | 1.04 | 0.89 | 58 | 1011.1 |
| 20260507014503 | 44 | 290 | 3.0 | 9.0 | 0.00 | 1.05 | 0.89 | 58 | 1011.0 |
| 20260507014003 | 44 | 306 | 2.0 | 7.0 | 0.00 | 1.06 | 0.89 | 58 | 1010.8 |
| 20260507013503 | 44 | 324 | 2.0 | 8.0 | 0.00 | 1.06 | 0.89 | 58 | 1010.9 |
| 20260507013003 | 44 | 336 | 3.0 | 8.0 | 0.00 | 1.07 | 0.89 | 58 | 1010.8 |
| 20260507012503 | 44 | 334 | 3.0 | 8.0 | 0.00 | 1.07 | 0.89 | 58 | 1011.0 |
| 20260507012003 | 45 | 307 | 2.0 | 5.0 | 0.00 | 1.08 | 0.89 | 58 | 1010.8 |
| 20260507011503 | 45 | 279 | 3.0 | 16.0 | 0.00 | 1.09 | 0.89 | 58 | 1011.0 |
| 20260507011003 | 45 | 284 | 3.0 | 16.0 | 0.00 | 1.14 | 0.89 | 58 | 1010.8 |
| 20260507010503 | 45 | 324 | 3.0 | 11.0 | 0.00 | 1.19 | 0.89 | 58 | 1010.7 |
| 20260507010214 | 45 | 317 | 3.0 | 11.0 | 0.00 | 1.21 | 0.89 | 58 | 1010.7 |
| 20260507005503 | 45 | 284 | 4.0 | 11.0 | 0.00 | 1.22 | 0.89 | 59 | 1010.7 |
| 20260507005003 | 45 | 315 | 4.0 | 14.0 | 0.00 | 1.22 | 0.89 | 59 | 1010.6 |
| 20260507004503 | 45 | 342 | 4.0 | 14.0 | 0.00 | 1.22 | 0.89 | 59 | 1010.4 |
| 20260507004003 | 46 | 333 | 3.0 | 13.0 | 0.00 | 1.22 | 0.89 | 59 | 1010.6 |
| 20260507003713 | 45 | 337 | 3.0 | 13.0 | 0.00 | 1.22 | 0.89 | 59 | 1010.4 |
| 20260507003003 | 45 | 353 | 1.0 | 5.0 | 0.00 | 1.23 | 0.89 | 60 | 1010.3 |
| 20260507002503 | 45 | 352 | 1.0 | 5.0 | 0.00 | 1.25 | 0.89 | 61 | 1010.2 |
| 20260507002003 | 46 | 360 | 1.0 | 8.0 | 0.00 | 1.25 | 0.89 | 61 | 1010.1 |
| 20260507001503 | 46 | 1 | 1.0 | 8.0 | 0.00 | 1.26 | 0.89 | 62 | 1009.9 |
| 20260507001214 | 46 | 2 | 0.0 | 5.0 | 0.00 | 1.26 | 0.89 | 62 | 1010.0 |
| 20260507000503 | 46 | 359 | 0.0 | 4.0 | 0.00 | 1.26 | 0.89 | 62 | 1010.0 |
| 20260507000214 | 46 | 3 | 0.0 | 4.0 | 0.00 | 1.26 | 0.89 | 62 | 1009.9 |
| 20260506235713 | 46 | 53 | 1.0 | 3.0 | 0.00 | 1.26 | 0.89 | 62 | 1009.7 |
| 20260506235003 | 46 | 75 | 0.0 | 2.0 | 0.00 | 1.26 | 0.89 | 62 | 1009.6 |
| 20260506234503 | 46 | 114 | 1.0 | 2.0 | 0.00 | 1.26 | 0.89 | 62 | 1009.7 |
| 20260506234003 | 46 | 111 | 0.0 | 2.0 | 0.00 | 1.26 | 0.89 | 62 | 1009.6 |
| 20260506233503 | 46 | 0 | 0.0 | 0.0 | 0.00 | 1.26 | 0.89 | 62 | 1009.5 |
| 20260506233213 | 46 | 0 | 0.0 | 0.0 | 0.00 | 1.26 | 0.89 | 62 | 1009.4 |
| 20260506232503 | 46 | 0 | 0.0 | 0.0 | 0.00 | 1.26 | 0.89 | 62 | 1009.3 |
| 20260506232003 | 46 | 0 | 0.0 | 0.0 | 0.00 | 1.27 | 0.89 | 62 | 1009.3 |
| 20260506231503 | 46 | 0 | 0.0 | 0.0 | 0.00 | 1.27 | 0.89 | 61 | 1009.3 |
| 20260506231003 | 46 | 40 | 1.0 | 2.0 | 0.00 | 1.28 | 0.89 | 61 | 1009.3 |
| 20260506230712 | 46 | 28 | 1.0 | 3.0 | 0.00 | 1.28 | 0.89 | 61 | 1009.4 |
| 20260506230003 | 46 | 19 | 0.0 | 3.0 | 0.00 | 1.28 | 0.89 | 61 | 1009.2 |
| 20260506225503 | 46 | 0 | 0.0 | 0.0 | 0.00 | 1.28 | 0.89 | 61 | 1009.3 |
| 20260506225003 | 46 | 0 | 0.0 | 0.0 | 0.00 | 1.28 | 0.89 | 62 | 1009.2 |
| 20260506224503 | 46 | 0 | 0.0 | 0.0 | 0.00 | 1.28 | 0.89 | 62 | 1009.2 |
| 20260506224003 | 46 | 0 | 0.0 | 0.0 | 0.00 | 1.28 | 0.89 | 62 | 1009.1 |
| 20260506223503 | 46 | 0 | 0.0 | 0.0 | 0.00 | 1.28 | 0.89 | 61 | 1009.0 |
| 20260506223003 | 46 | 0 | 0.0 | 0.0 | 0.00 | 1.28 | 0.89 | 62 | 1009.0 |
| 20260506222714 | 46 | 0 | 0.0 | 0.0 | 0.00 | 1.28 | 0.89 | 62 | 1009.0 |
| 20260506222003 | 46 | 96 | 1.0 | 2.0 | 0.00 | 1.28 | 0.89 | 61 | 1008.9 |
| 20260506221714 | 46 | 96 | 1.0 | 2.0 | 0.00 | 1.28 | 0.89 | 61 | 1008.9 |
| 20260506221213 | 46 | 96 | 0.0 | 2.0 | 0.00 | 1.28 | 0.89 | 62 | 1008.8 |
| 20260506220503 | 46 | 97 | 0.0 | 3.0 | 0.00 | 1.28 | 0.89 | 62 | 1008.8 |
| 20260506220213 | 46 | 97 | 1.0 | 3.0 | 0.00 | 1.28 | 0.89 | 62 | 1008.8 |
| 20260506215503 | 46 | 96 | 1.0 | 3.0 | 0.00 | 1.28 | 0.89 | 61 | 1008.9 |
| 20260506215004 | 46 | 86 | 1.0 | 4.0 | 0.00 | 1.28 | 0.89 | 61 | 1009.1 |
| 20260506214714 | 46 | 85 | 1.0 | 4.0 | 0.00 | 1.28 | 0.89 | 62 | 1009.0 |
| 20260506214003 | 46 | 41 | 0.0 | 3.0 | 0.00 | 1.28 | 0.89 | 63 | 1008.9 |
| 20260506213714 | 46 | 10 | 1.0 | 4.0 | 0.00 | 1.28 | 0.89 | 63 | 1008.9 |
| 20260506213003 | 46 | 316 | 1.0 | 5.0 | 0.00 | 1.28 | 0.89 | 64 | 1009.0 |
| 20260506212503 | 46 | 356 | 1.0 | 5.0 | 0.00 | 1.28 | 0.89 | 63 | 1009.0 |
| 20260506212003 | 46 | 79 | 1.0 | 3.0 | 0.00 | 1.28 | 0.89 | 64 | 1008.9 |
| 20260506211714 | 46 | 79 | 1.0 | 3.0 | 0.00 | 1.28 | 0.89 | 64 | 1008.9 |
| 20260506211003 | 46 | 77 | 1.0 | 3.0 | 0.00 | 1.28 | 0.89 | 64 | 1009.0 |
| 20260506210503 | 46 | 44 | 1.0 | 3.0 | 0.00 | 1.28 | 0.89 | 64 | 1009.1 |
| 20260506210003 | 45 | 14 | 1.0 | 4.0 | 0.00 | 1.28 | 0.89 | 64 | 1008.9 |
| 20260506205503 | 45 | 13 | 2.0 | 4.0 | 0.00 | 1.28 | 0.89 | 64 | 1008.8 |
| 20260506205003 | 45 | 24 | 2.0 | 5.0 | 0.00 | 1.28 | 0.89 | 64 | 1008.7 |
| 20260506204503 | 45 | 24 | 3.0 | 5.0 | 0.00 | 1.28 | 0.89 | 64 | 1008.8 |
| 20260506204003 | 45 | 2 | 3.0 | 6.0 | 0.00 | 1.28 | 0.89 | 65 | 1008.8 |
| 20260506203503 | 45 | 353 | 3.0 | 6.0 | 0.00 | 1.28 | 0.89 | 64 | 1008.8 |
| 20260506203003 | 45 | 358 | 3.0 | 6.0 | 0.00 | 1.28 | 0.89 | 64 | 1008.8 |
| 20260506202503 | 45 | 9 | 2.0 | 6.0 | 0.00 | 1.28 | 0.89 | 64 | 1008.9 |
| 20260506202003 | 45 | 25 | 1.0 | 6.0 | 0.00 | 1.28 | 0.89 | 64 | 1008.9 |
| 20260506201503 | 45 | 27 | 2.0 | 4.0 | 0.00 | 1.28 | 0.89 | 64 | 1008.9 |
| 20260506201212 | 45 | 30 | 2.0 | 5.0 | 0.00 | 1.28 | 0.89 | 64 | 1008.9 |
| 20260506200503 | 45 | 35 | 2.0 | 5.0 | 0.00 | 1.28 | 0.89 | 64 | 1008.8 |
| 20260506200003 | 45 | 70 | 2.0 | 4.0 | 0.00 | 1.28 | 0.89 | 64 | 1008.7 |
| 20260506195503 | 46 | 52 | 3.0 | 7.0 | 0.00 | 1.28 | 0.89 | 64 | 1008.8 |
| 20260506195003 | 46 | 18 | 3.0 | 7.0 | 0.00 | 1.28 | 0.89 | 65 | 1008.7 |
| 20260506194503 | 45 | 352 | 2.0 | 5.0 | 0.00 | 1.28 | 0.89 | 65 | 1008.6 |
| 20260506194214 | 45 | 341 | 1.0 | 5.0 | 0.00 | 1.28 | 0.89 | 65 | 1008.6 |
| 20260506193503 | 45 | 349 | 1.0 | 4.0 | 0.01 | 1.28 | 0.89 | 65 | 1008.6 |
| 20260506193214 | 45 | 355 | 2.0 | 6.0 | 0.01 | 1.28 | 0.89 | 65 | 1008.5 |
| 20260506192503 | 45 | 350 | 3.0 | 9.0 | 0.01 | 1.29 | 0.89 | 65 | 1008.4 |
| 20260506192003 | 45 | 345 | 3.0 | 9.0 | 0.01 | 1.29 | 0.89 | 65 | 1008.5 |
| 20260506191503 | 45 | 356 | 2.0 | 6.0 | 0.01 | 1.29 | 0.89 | 65 | 1008.5 |
| 20260506191003 | 45 | 2 | 2.0 | 6.0 | 0.01 | 1.29 | 0.89 | 65 | 1008.5 |
| 20260506190503 | 45 | 359 | 2.0 | 6.0 | 0.01 | 1.29 | 0.89 | 66 | 1008.5 |
| 20260506190004 | 44 | 354 | 2.0 | 6.0 | 0.01 | 1.29 | 0.89 | 65 | 1008.4 |
| 20260506185503 | 44 | 353 | 2.0 | 5.0 | 0.01 | 1.29 | 0.89 | 65 | 1008.5 |
| 20260506185003 | 44 | 357 | 3.0 | 6.0 | 0.01 | 1.29 | 0.89 | 65 | 1008.5 |
| 20260506184503 | 44 | 2 | 3.0 | 6.0 | 0.01 | 1.29 | 0.89 | 65 | 1008.4 |
| 20260506184003 | 44 | 9 | 3.0 | 5.0 | 0.01 | 1.29 | 0.89 | 65 | 1008.3 |
| 20260506183503 | 44 | 6 | 3.0 | 8.0 | 0.00 | 1.28 | 0.88 | 65 | 1008.3 |
| 20260506183003 | 44 | 5 | 3.0 | 8.0 | 0.00 | 1.28 | 0.88 | 65 | 1008.2 |
| 20260506182503 | 44 | 1 | 3.0 | 8.0 | 0.00 | 1.28 | 0.88 | 66 | 1008.3 |
| 20260506182003 | 44 | 341 | 2.0 | 10.0 | 0.00 | 1.28 | 0.88 | 65 | 1008.2 |
| 20260506181503 | 44 | 324 | 2.0 | 10.0 | 0.00 | 1.28 | 0.88 | 65 | 1008.2 |
| 20260506181214 | 44 | 319 | 2.0 | 10.0 | 0.00 | 1.28 | 0.88 | 65 | 1008.3 |
| 20260506180503 | 44 | 325 | 2.0 | 6.0 | 0.00 | 1.28 | 0.88 | 66 | 1008.3 |
| 20260506180004 | 44 | 344 | 2.0 | 5.0 | 0.00 | 1.28 | 0.88 | 66 | 1008.2 |
| 20260506175503 | 44 | 350 | 2.0 | 7.0 | 0.00 | 1.28 | 0.88 | 65 | 1008.3 |
| 20260506175003 | 44 | 347 | 2.0 | 7.0 | 0.00 | 1.28 | 0.88 | 65 | 1008.2 |
| 20260506174714 | 44 | 352 | 2.0 | 7.0 | 0.00 | 1.28 | 0.88 | 65 | 1008.2 |
| 20260506174003 | 44 | 18 | 2.0 | 5.0 | 0.00 | 1.28 | 0.88 | 65 | 1008.0 |
| 20260506173503 | 44 | 36 | 2.0 | 4.0 | 0.00 | 1.28 | 0.88 | 66 | 1007.9 |
| 20260506173003 | 44 | 28 | 2.0 | 5.0 | 0.00 | 1.28 | 0.88 | 66 | 1007.9 |
| 20260506172503 | 44 | 26 | 2.0 | 5.0 | 0.00 | 1.28 | 0.88 | 66 | 1007.7 |
| 20260506172213 | 44 | 22 | 3.0 | 5.0 | 0.00 | 1.28 | 0.88 | 66 | 1007.7 |
| 20260506171503 | 44 | 37 | 3.0 | 5.0 | 0.00 | 1.28 | 0.88 | 66 | 1007.7 |
| 20260506171003 | 44 | 30 | 3.0 | 5.0 | 0.00 | 1.28 | 0.88 | 66 | 1007.6 |
| 20260506170503 | 44 | 14 | 2.0 | 5.0 | 0.00 | 1.28 | 0.88 | 66 | 1007.6 |
| 20260506170004 | 44 | 21 | 1.0 | 5.0 | 0.00 | 1.28 | 0.88 | 65 | 1007.6 |
| 20260506165503 | 44 | 39 | 1.0 | 4.0 | 0.00 | 1.28 | 0.88 | 65 | 1007.6 |
| 20260506165003 | 44 | 48 | 2.0 | 6.0 | 0.00 | 1.29 | 0.88 | 65 | 1007.5 |
| 20260506164503 | 44 | 53 | 3.0 | 6.0 | 0.00 | 1.29 | 0.88 | 65 | 1007.6 |
| 20260506164003 | 44 | 29 | 3.0 | 6.0 | 0.00 | 1.29 | 0.88 | 66 | 1007.5 |
| 20260506163503 | 44 | 12 | 3.0 | 6.0 | 0.00 | 1.29 | 0.88 | 65 | 1007.5 |
| 20260506163003 | 44 | 21 | 3.0 | 6.0 | 0.00 | 1.29 | 0.88 | 66 | 1007.5 |
| 20260506162503 | 44 | 22 | 3.0 | 6.0 | 0.01 | 1.29 | 0.88 | 66 | 1007.4 |
| 20260506162003 | 44 | 19 | 2.0 | 5.0 | 0.01 | 1.29 | 0.88 | 66 | 1007.4 |
| 20260506161503 | 44 | 41 | 3.0 | 7.0 | 0.02 | 1.29 | 0.88 | 66 | 1007.4 |
| 20260506161003 | 44 | 57 | 3.0 | 7.0 | 0.02 | 1.29 | 0.88 | 66 | 1007.3 |
| 20260506160503 | 44 | 44 | 2.0 | 6.0 | 0.02 | 1.29 | 0.88 | 66 | 1007.3 |
| 20260506160003 | 44 | 27 | 2.0 | 6.0 | 0.02 | 1.29 | 0.88 | 66 | 1007.4 |
| 20260506155714 | 44 | 28 | 3.0 | 6.0 | 0.02 | 1.29 | 0.88 | 66 | 1007.5 |
| 20260506155213 | 44 | 18 | 2.0 | 6.0 | 0.02 | 1.29 | 0.88 | 66 | 1007.7 |
| 20260506154503 | 43 | 18 | 1.0 | 4.0 | 0.02 | 1.29 | 0.88 | 66 | 1007.8 |
| 20260506154003 | 43 | 27 | 2.0 | 5.0 | 0.03 | 1.29 | 0.88 | 66 | 1007.8 |
| 20260506153503 | 43 | 49 | 3.0 | 6.0 | 0.03 | 1.29 | 0.88 | 66 | 1007.8 |
| 20260506153003 | 43 | 64 | 4.0 | 8.0 | 0.03 | 1.29 | 0.88 | 66 | 1007.6 |
| 20260506152503 | 43 | 49 | 4.0 | 8.0 | 0.02 | 1.28 | 0.87 | 66 | 1007.6 |
| 20260506152003 | 43 | 29 | 2.0 | 7.0 | 0.02 | 1.28 | 0.87 | 66 | 1007.6 |
| 20260506151503 | 42 | 6 | 2.0 | 6.0 | 0.02 | 1.27 | 0.86 | 66 | 1007.7 |
| 20260506151003 | 42 | 355 | 2.0 | 6.0 | 0.02 | 1.27 | 0.86 | 66 | 1007.7 |
| 20260506150503 | 42 | 4 | 2.0 | 5.0 | 0.02 | 1.27 | 0.86 | 66 | 1007.7 |
| 20260506150003 | 42 | 19 | 1.0 | 4.0 | 0.02 | 1.27 | 0.86 | 66 | 1007.6 |
| 20260506145503 | 42 | 12 | 1.0 | 4.0 | 0.02 | 1.27 | 0.86 | 66 | 1007.6 |
| 20260506145003 | 42 | 7 | 2.0 | 6.0 | 0.02 | 1.27 | 0.86 | 66 | 1007.4 |
| 20260506144503 | 42 | 10 | 3.0 | 6.0 | 0.02 | 1.27 | 0.86 | 66 | 1007.3 |
| 20260506144003 | 42 | 22 | 3.0 | 7.0 | 0.01 | 1.26 | 0.85 | 66 | 1007.2 |
| 20260506143503 | 42 | 29 | 2.0 | 7.0 | 0.01 | 1.26 | 0.85 | 66 | 1007.0 |
| 20260506143214 | 42 | 28 | 3.0 | 7.0 | 0.01 | 1.26 | 0.85 | 66 | 1007.1 |
| 20260506142503 | 41 | 32 | 3.0 | 7.0 | 0.02 | 1.26 | 0.85 | 66 | 1007.0 |
| 20260506142003 | 41 | 25 | 3.0 | 8.0 | 0.02 | 1.26 | 0.85 | 66 | 1007.0 |
| 20260506141503 | 41 | 2 | 4.0 | 9.0 | 0.01 | 1.25 | 0.85 | 66 | 1007.1 |
| 20260506141003 | 41 | 1 | 5.0 | 10.0 | 0.01 | 1.25 | 0.84 | 66 | 1006.9 |
| 20260506140713 | 41 | 1 | 5.0 | 10.0 | 0.01 | 1.25 | 0.84 | 66 | 1007.1 |
| 20260506140003 | 41 | 4 | 4.0 | 9.0 | 0.01 | 1.25 | 0.84 | 66 | 1007.1 |
| 20260506135503 | 41 | 6 | 4.0 | 8.0 | 0.02 | 1.25 | 0.84 | 66 | 1007.1 |
| 20260506135003 | 41 | 6 | 4.0 | 8.0 | 0.02 | 1.25 | 0.84 | 65 | 1007.0 |
| 20260506134503 | 41 | 14 | 3.0 | 8.0 | 0.02 | 1.25 | 0.84 | 66 | 1007.3 |
| 20260506134003 | 41 | 21 | 3.0 | 7.0 | 0.02 | 1.25 | 0.84 | 66 | 1007.2 |
| 20260506133503 | 41 | 11 | 2.0 | 7.0 | 0.03 | 1.25 | 0.84 | 66 | 1007.2 |
| 20260506133003 | 41 | 7 | 3.0 | 8.0 | 0.04 | 1.25 | 0.84 | 66 | 1007.2 |
| 20260506132503 | 41 | 8 | 3.0 | 8.0 | 0.04 | 1.24 | 0.83 | 66 | 1007.1 |
| 20260506132003 | 41 | 2 | 4.0 | 8.0 | 0.04 | 1.24 | 0.83 | 66 | 1007.1 |
| 20260506131503 | 41 | 357 | 4.0 | 10.0 | 0.05 | 1.24 | 0.83 | 66 | 1007.1 |
| 20260506131003 | 41 | 357 | 3.0 | 10.0 | 0.06 | 1.24 | 0.83 | 66 | 1007.2 |
| 20260506130503 | 41 | 357 | 4.0 | 10.0 | 0.08 | 1.24 | 0.83 | 66 | 1007.2 |
| 20260506130214 | 41 | 357 | 4.0 | 11.0 | 0.09 | 1.24 | 0.83 | 66 | 1007.2 |
| 20260506125503 | 41 | 354 | 5.0 | 11.0 | 0.10 | 1.23 | 0.82 | 66 | 1007.2 |
| 20260506125003 | 41 | 351 | 4.0 | 11.0 | 0.10 | 1.23 | 0.82 | 66 | 1007.2 |
| 20260506124503 | 41 | 348 | 4.0 | 9.0 | 0.11 | 1.23 | 0.82 | 66 | 1007.3 |
| 20260506124003 | 41 | 345 | 4.0 | 10.0 | 0.12 | 1.23 | 0.82 | 66 | 1007.4 |
| 20260506123503 | 41 | 350 | 4.0 | 10.0 | 0.12 | 1.22 | 0.81 | 66 | 1007.2 |
| 20260506123003 | 41 | 354 | 3.0 | 8.0 | 0.12 | 1.21 | 0.80 | 65 | 1007.4 |
| 20260506122503 | 41 | 350 | 3.0 | 9.0 | 0.11 | 1.20 | 0.80 | 65 | 1007.7 |
| 20260506122003 | 41 | 349 | 4.0 | 10.0 | 0.12 | 1.20 | 0.79 | 65 | 1007.6 |
| 20260506121503 | 41 | 350 | 5.0 | 11.0 | 0.12 | 1.19 | 0.78 | 65 | 1007.5 |
| 20260506121003 | 41 | 355 | 6.0 | 12.0 | 0.11 | 1.18 | 0.77 | 65 | 1007.3 |
| 20260506120503 | 41 | 358 | 7.0 | 16.0 | 0.09 | 1.16 | 0.75 | 65 | 1007.5 |
| 20260506120003 | 41 | 358 | 7.0 | 16.0 | 0.08 | 1.14 | 0.73 | 65 | 1007.3 |
| 20260506115503 | 41 | 4 | 7.0 | 14.0 | 0.08 | 1.13 | 0.72 | 65 | 1007.2 |
| 20260506115003 | 42 | 11 | 7.0 | 14.0 | 0.08 | 1.13 | 0.72 | 65 | 1006.9 |
| 20260506114503 | 42 | 8 | 6.0 | 11.0 | 0.08 | 1.12 | 0.71 | 65 | 1006.9 |
| 20260506114213 | 42 | 5 | 6.0 | 12.0 | 0.08 | 1.11 | 0.70 | 65 | 1006.8 |
| 20260506113503 | 41 | 10 | 7.0 | 15.0 | 0.08 | 1.10 | 0.69 | 65 | 1006.7 |
| 20260506113003 | 42 | 5 | 8.0 | 15.0 | 0.08 | 1.09 | 0.68 | 65 | 1006.7 |
| 20260506112503 | 42 | 359 | 8.0 | 16.0 | 0.08 | 1.09 | 0.68 | 65 | 1006.7 |
| 20260506112213 | 42 | 360 | 7.0 | 16.0 | 0.08 | 1.08 | 0.67 | 65 | 1006.7 |
| 20260506111503 | 41 | 5 | 7.0 | 14.0 | 0.08 | 1.07 | 0.66 | 65 | 1006.7 |
| 20260506111003 | 42 | 5 | 8.0 | 15.0 | 0.09 | 1.07 | 0.66 | 65 | 1006.8 |
| 20260506110503 | 41 | 1 | 8.0 | 16.0 | 0.11 | 1.07 | 0.66 | 65 | 1006.9 |
| 20260506110003 | 41 | 356 | 7.0 | 16.0 | 0.11 | 1.06 | 0.65 | 65 | 1006.7 |
| 20260506105503 | 42 | 355 | 7.0 | 14.0 | 0.11 | 1.05 | 0.64 | 65 | 1006.7 |
| 20260506105003 | 42 | 4 | 7.0 | 14.0 | 0.13 | 1.05 | 0.64 | 65 | 1006.8 |
| 20260506104503 | 42 | 8 | 8.0 | 15.0 | 0.13 | 1.04 | 0.63 | 65 | 1006.7 |
| 20260506104003 | 42 | 3 | 8.0 | 15.0 | 0.13 | 1.03 | 0.62 | 65 | 1006.9 |
| 20260506103503 | 42 | 3 | 8.0 | 16.0 | 0.13 | 1.02 | 0.61 | 65 | 1006.8 |
| 20260506103003 | 42 | 6 | 8.0 | 16.0 | 0.13 | 1.01 | 0.60 | 65 | 1006.9 |
| 20260506102503 | 43 | 11 | 7.0 | 14.0 | 0.14 | 1.01 | 0.60 | 65 | 1006.9 |
| 20260506102213 | 43 | 13 | 6.0 | 13.0 | 0.14 | 1.00 | 0.59 | 65 | 1006.9 |